Falfurrias, TX

6:54 PM CST on November 13, 2019 (GMT -0600)
Falfurrias

Weather History for KBKS - September, 2019

Change the Weather History Date:

Monday, September 2, 2019

  Actual Average (KNQI) Record (KNQI)
Temperature  
Mean Temperature 88 °F -  
Max Temperature 100 °F 90 °F 102 °F (2011)
Min Temperature 76 °F 72 °F 71 °F (2017)
Cooling Degree Days 22    
Growing Degree Days 38 (Base 50)    
Moisture  
Dew Point 71 °F    
Average Humidity 63    
Maximum Humidity 86    
Minimum Humidity 32    
Precipitation  
Precipitation 0.00 in - - ()
Sea Level Pressure  
Sea Level Pressure 29.95 in    
Wind  
Wind Speed 5 mph ()    
Max Wind Speed 17 mph    
Max Gust Speed 23 mph    
Visibility 10.0 miles    
Events      
Averages and records for this station are not official NWS values.
T = Trace of Precipitation, MM = Missing Value Source: Averaged Metar Reports

Daily Weather History Graph

Daily Weather History Graph

Search for Another Location

Airport or City:

Astronomy

Sep. 02, 2019 Rise Set
Actual Time 7:12 AM CDT 7:51 PM CDT
Civil Twilight 6:48 AM CDT 8:15 PM CDT
Nautical Twilight 6:20 AM CDT 8:43 PM CDT
Astronomical Twilight 5:52 AM CDT 9:11 PM CDT
Moon 10:38 AM CDT (9/2) 10:35 PM CDT (9/2)
Length of Visible Light 13h 27m
Length of Day
12h 39m
Waxing Crescent, 15% of the Moon is Illuminated
Sep 2
Waxing Crescent
Sep 5
First Quarter
Sep 13
Full
Sep 21
Last Quarter
Sep 28
New

Hourly Weather History & Observations

Time (CDT) Temp. Heat Index Dew Point Humidity Pressure Visibility Wind Dir Wind Speed Gust Speed Precip Events Conditions
12:15 AM 79.0 °F - 71.8 °F 78% 29.99 in 10.0 mi Calm Calm - N/A   Clear
12:35 AM 79.3 °F - 72.0 °F 78% 29.99 in 10.0 mi Calm Calm - N/A   Clear
12:55 AM 79.0 °F - 72.0 °F 79% 29.98 in 10.0 mi Calm Calm - N/A   Clear
1:15 AM 78.8 °F - 72.5 °F 81% 29.98 in 10.0 mi WNW 3.5 mph - N/A   Clear
1:35 AM 78.4 °F - 72.1 °F 81% 29.98 in 10.0 mi Calm Calm - N/A   Clear
1:55 AM 77.7 °F - 72.1 °F 83% 29.98 in 10.0 mi Calm Calm - N/A   Clear
2:15 AM 77.4 °F - 71.8 °F 83% 29.97 in 10.0 mi NNW 3.5 mph - N/A   Clear
2:35 AM 77.2 °F - 71.6 °F 83% 29.97 in 10.0 mi North 3.5 mph - N/A   Clear
2:55 AM 77.0 °F - 71.6 °F 83% 29.97 in 10.0 mi Calm Calm - N/A   Clear
3:15 AM 77.2 °F - 71.6 °F 83% 29.96 in 10.0 mi NW 3.5 mph - N/A   Clear
3:35 AM 77.9 °F - 72.0 °F 82% 29.96 in 10.0 mi Calm Calm - N/A   Clear
3:55 AM 77.4 °F - 71.8 °F 83% 29.96 in 10.0 mi Calm Calm - N/A   Clear
4:15 AM 76.8 °F - 71.6 °F 84% 29.95 in 10.0 mi Calm Calm - N/A   Clear
4:35 AM 76.6 °F - 71.6 °F 84% 29.95 in 10.0 mi Calm Calm - N/A   Clear
4:55 AM 76.6 °F - 71.6 °F 84% 29.95 in 10.0 mi WNW 3.5 mph - N/A   Clear
5:15 AM 77.0 °F - 71.6 °F 83% 29.96 in 10.0 mi NW 3.5 mph - N/A   Clear
5:35 AM 76.5 °F - 71.6 °F 85% 29.96 in 10.0 mi NW 3.5 mph - N/A   Clear
5:55 AM 76.1 °F - 71.6 °F 86% 29.96 in 10.0 mi NNW 3.5 mph - N/A   Clear
6:15 AM 76.1 °F - 71.6 °F 86% 29.96 in 10.0 mi NNW 4.6 mph - N/A   Scattered Clouds
6:35 AM 76.3 °F - 71.6 °F 85% 29.96 in 10.0 mi NNW 5.8 mph - N/A   Clear
6:55 AM 76.5 °F - 71.6 °F 85% 29.96 in 10.0 mi NNW 5.8 mph - N/A   Clear
7:15 AM 76.5 °F - 71.6 °F 85% 29.97 in 10.0 mi NNW 6.9 mph - N/A   Clear
7:35 AM 76.3 °F - 71.4 °F 85% 29.98 in 10.0 mi NW 9.2 mph - N/A   Scattered Clouds
7:55 AM 77.4 °F - 72.0 °F 83% 29.98 in 10.0 mi NNW 6.9 mph - N/A   Scattered Clouds
8:15 AM 79.0 °F - 72.5 °F 80% 29.98 in 10.0 mi NNW 9.2 mph - N/A   Clear
8:35 AM 80.2 °F 84.5 °F 72.9 °F 78% 29.98 in 10.0 mi NNW 6.9 mph - N/A   Scattered Clouds
8:55 AM 82.2 °F 88.0 °F 73.6 °F 75% 29.99 in 10.0 mi NNW 4.6 mph - N/A   Scattered Clouds
9:15 AM 84.9 °F 92.9 °F 74.7 °F 71% 29.99 in 10.0 mi North 10.4 mph 17.3 mph N/A   Clear
9:35 AM 86.7 °F 96.4 °F 75.6 °F 69% 29.99 in 10.0 mi North 9.2 mph - N/A   Scattered Clouds
9:55 AM 86.9 °F 96.4 °F 75.4 °F 68% 30.00 in 10.0 mi North 8.1 mph - N/A   Scattered Clouds
10:15 AM 88.0 °F 97.5 °F 74.7 °F 65% 30.00 in 10.0 mi North 12.7 mph 16.1 mph N/A   Scattered Clouds
10:35 AM 88.7 °F 97.2 °F 73.6 °F 61% 30.00 in 10.0 mi NNE 10.4 mph 17.3 mph N/A   Scattered Clouds
10:55 AM 89.4 °F 97.8 °F 73.4 °F 59% 30.00 in 10.0 mi NNE 9.2 mph - N/A   Scattered Clouds
11:15 AM 90.0 °F 98.5 °F 73.4 °F 58% 29.99 in 10.0 mi NNE 4.6 mph - N/A   Scattered Clouds
11:35 AM 93.6 °F 100.7 °F 71.1 °F 48% 29.99 in 10.0 mi NNE 10.4 mph 16.1 mph N/A   Scattered Clouds
11:55 AM 93.6 °F 100.1 °F 70.5 °F 47% 29.99 in 10.0 mi NNE 11.5 mph - N/A   Scattered Clouds
12:15 PM 93.4 °F 98.6 °F 69.4 °F 45% 29.98 in 10.0 mi North 8.1 mph 17.3 mph N/A   Scattered Clouds
12:35 PM 94.6 °F 99.4 °F 68.5 °F 42% 29.98 in 10.0 mi NNE 10.4 mph - N/A   Scattered Clouds
12:55 PM 94.6 °F 99.4 °F 68.0 °F 42% 29.96 in 10.0 mi North 12.7 mph 20.7 mph N/A   Mostly Cloudy
1:15 PM 96.3 °F 100.2 °F 67.1 °F 38% 29.96 in 10.0 mi NNE 11.5 mph 18.4 mph N/A   Mostly Cloudy
1:35 PM 96.6 °F 100.9 °F 66.9 °F 38% 29.95 in 10.0 mi NE 6.9 mph 18.4 mph N/A   Mostly Cloudy
1:55 PM 98.2 °F 101.6 °F 65.7 °F 34% 29.95 in 10.0 mi NE 13.8 mph 18.4 mph N/A   Scattered Clouds
2:15 PM 99.3 °F 102.9 °F 65.3 °F 33% 29.94 in 10.0 mi NE 10.4 mph 19.6 mph N/A   Scattered Clouds
2:35 PM 99.5 °F 102.6 °F 65.1 °F 32% 29.93 in 10.0 mi ENE 16.1 mph 20.7 mph N/A   Scattered Clouds
2:55 PM 97.7 °F 102.4 °F 67.5 °F 37% 29.92 in 10.0 mi ENE 11.5 mph 19.6 mph N/A   Scattered Clouds
3:15 PM 97.9 °F 102.1 °F 66.9 °F 36% 29.91 in 10.0 mi East 11.5 mph 18.4 mph N/A   Clear
3:35 PM 99.3 °F 104.2 °F 67.3 °F 35% 29.90 in 10.0 mi East 15.0 mph 20.7 mph N/A   Scattered Clouds
3:50 PM 99.1 °F 103.8 °F 66.7 °F 35% 29.90 in 10.0 mi East 15.0 mph 19.6 mph N/A   Scattered Clouds
4:15 PM 97.9 °F 103.3 °F 68.5 °F 38% 29.90 in 10.0 mi East 16.1 mph 23.0 mph N/A   Mostly Cloudy
4:35 PM 97.9 °F 103.3 °F 68.5 °F 38% 29.89 in 10.0 mi ENE 13.8 mph 21.9 mph N/A   Scattered Clouds
4:55 PM 97.2 °F 102.5 °F 68.5 °F 39% 29.90 in 10.0 mi East 11.5 mph 21.9 mph N/A   Clear
5:15 PM 97.5 °F 103.3 °F 69.1 °F 39% 29.90 in 10.0 mi East 17.3 mph 21.9 mph N/A   Clear
5:35 PM 96.3 °F 101.4 °F 68.4 °F 40% 29.89 in 10.0 mi East 15.0 mph 19.6 mph N/A   Clear
5:55 PM 96.3 °F 100.8 °F 67.5 °F 39% 29.90 in 10.0 mi East 12.7 mph 20.7 mph N/A   Clear
6:15 PM 95.2 °F 97.8 °F 64.8 °F 37% 29.91 in 10.0 mi East 16.1 mph - N/A   Clear
6:35 PM 94.1 °F 96.9 °F 65.8 °F 39% 29.91 in 10.0 mi East 11.5 mph 21.9 mph N/A   Clear
6:55 PM 93.0 °F 96.9 °F 67.3 °F 43% 29.91 in 10.0 mi East 15.0 mph - N/A   Clear
7:15 PM 91.2 °F 97.0 °F 70.0 °F 50% 29.92 in 10.0 mi East 11.5 mph 17.3 mph N/A   Clear
7:35 PM 89.8 °F 96.0 °F 71.1 °F 54% 29.92 in 10.0 mi East 10.4 mph - N/A   Clear
7:55 PM 88.7 °F 93.9 °F 70.2 °F 54% 29.92 in 10.0 mi East 10.4 mph - N/A   Clear
8:15 PM 88.0 °F 92.9 °F 70.2 °F 55% 29.92 in 10.0 mi East 10.4 mph - N/A   Clear
8:35 PM 87.3 °F 92.8 °F 71.1 °F 58% 29.92 in 10.0 mi East 6.9 mph - N/A   Clear
8:55 PM 86.5 °F 92.5 °F 71.6 °F 61% 29.92 in 10.0 mi East 6.9 mph - N/A   Clear
9:15 PM 86.0 °F 92.2 °F 72.1 °F 63% 29.93 in 10.0 mi East 3.5 mph - N/A   Clear
9:35 PM 85.1 °F 91.5 °F 72.5 °F 66% 29.94 in 10.0 mi Calm Calm - N/A   Clear
9:55 PM 84.6 °F 90.7 °F 72.5 °F 67% 29.95 in 10.0 mi Calm Calm - N/A   Clear
10:15 PM 84.4 °F 90.6 °F 72.7 °F 68% 29.95 in 10.0 mi Calm Calm - N/A   Clear
10:35 PM 84.2 °F 90.3 °F 72.5 °F 68% 29.95 in 10.0 mi Calm Calm - N/A   Clear
10:55 PM 82.4 °F 87.7 °F 72.5 °F 72% 29.94 in 10.0 mi Calm Calm - N/A   Clear
11:15 PM 81.9 °F 86.8 °F 72.5 °F 73% 29.94 in 10.0 mi Calm Calm - N/A   Clear
11:35 PM 81.7 °F 86.7 °F 72.5 °F 74% 29.94 in 10.0 mi Calm Calm - N/A   Clear
11:55 PM 81.0 °F 85.4 °F 72.5 °F 75% 29.93 in 10.0 mi Calm Calm - N/A   Clear